Tracking 27124 objects as of 31-Mar-2023
HD Live streaming from Space Station
objects crossing your sky now

BPA 3/SL-24 R/B

Track BPA 3/SL-24 R/B now!
10-day predictions


NORAD ID: 39448
Int'l Code: 2013-066AJ
Perigee: 598.8 km
Apogee: 1,613.8 km
Inclination: 97.7 °
Period: 107.2 minutes
Semi major axis: 7477 km
RCS: Unknown
Launch date: November 21, 2013
Source: Commonwealth of Independent States (former USSR) (CIS)
Launch site: Orenburg, Russia (OREN)

Note: This is a ROCKET BODY
Your satellite tracking list
Your tracking list is empty




NASA's NSSDC Master Catalog

Two Line Element Set (TLE):
1 39448U 13066AJ  23089.87462979  .00000206  00000-0  10573-3 0  9995
2 39448  97.6891 149.3806 0678745 226.2418 128.0604 13.42722523458260
Source of the keplerian elements: AFSPC